| time (UTC) | temp C | wind direction | speed KPH | gust KPH | rain 1hr cm | rain 24hr cm | rain mn cm | humidity % | barometer mb |
| 20260504081512 | 11 | 286 | 0.0 | 0.0 | 0.00 | 0.00 | 0.00 | 51 | 1015.9 |
| 20260504044605 | 10 | 286 | 0.0 | 1.6 | 0.00 | 0.00 | 0.00 | 50 | 1016.5 |
| 20260504043059 | 10 | 286 | 0.0 | 0.0 | 0.00 | 0.00 | 0.00 | 53 | 1016.2 |
| 20260504041555 | 11 | 286 | 0.0 | 0.0 | 0.00 | 0.00 | 0.00 | 51 | 1016.4 |
| 20260504040105 | 11 | 286 | 0.0 | 3.2 | 0.00 | 0.00 | 0.00 | 49 | 1016.3 |
| 20260504034612 | 10 | 286 | 1.6 | 6.4 | 0.00 | 0.00 | 0.00 | 48 | 1016.4 |
| 20260504033051 | 10 | 286 | 0.0 | 3.2 | 0.00 | 0.00 | 0.00 | 49 | 1016.4 |
| 20260504031550 | 10 | 286 | 0.0 | 4.8 | 0.00 | 0.00 | 0.00 | 47 | 1016.4 |
| 20260504030113 | 10 | 286 | 0.0 | 1.6 | 0.00 | 0.00 | 0.00 | 48 | 1016.4 |
| 20260504024555 | 10 | 286 | 0.0 | 3.2 | 0.00 | 0.00 | 0.00 | 49 | 1016.4 |
| 20260504023049 | 10 | 286 | 0.0 | 4.8 | 0.00 | 0.00 | 0.00 | 48 | 1016.5 |
| 20260504021551 | 11 | 286 | 0.0 | 3.2 | 0.00 | 0.00 | 0.00 | 46 | 1016.4 |
| 20260504020149 | 11 | 286 | 0.0 | 3.2 | 0.00 | 0.00 | 0.00 | 45 | 1016.2 |
| 20260504014552 | 11 | 286 | 1.6 | 9.7 | 0.00 | 0.00 | 0.00 | 44 | 1016.3 |
| 20260504013052 | 11 | 286 | 0.0 | 3.2 | 0.00 | 0.00 | 0.00 | 44 | 1015.8 |
| 20260504011546 | 12 | 286 | 0.0 | 3.2 | 0.00 | 0.00 | 0.00 | 43 | 1015.8 |
| 20260504010045 | 13 | 286 | 0.0 | 3.2 | 0.00 | 0.00 | 0.00 | 40 | 1015.6 |
| 20260504004544 | 13 | 286 | 0.0 | 0.0 | 0.00 | 0.00 | 0.00 | 36 | 1015.5 |
| 20260504003044 | 13 | 286 | 0.0 | 0.0 | 0.00 | 0.00 | 0.00 | 35 | 1015.3 |
| 20260504001558 | 14 | 286 | 0.0 | 0.0 | 0.00 | 0.00 | 0.00 | 35 | 1015.3 |
| 20260504000042 | 15 | 286 | 0.0 | 1.6 | 0.00 | 0.00 | 0.00 | 32 | 1015.3 |
| 20260503234542 | 15 | 286 | 0.0 | 1.6 | 0.00 | 0.00 | 0.00 | 31 | 1015.2 |
| 20260503233042 | 15 | 286 | 0.0 | 1.6 | 0.00 | 0.00 | 0.00 | 31 | 1015.2 |
| 20260503231543 | 16 | 286 | 0.0 | 11.3 | 0.00 | 0.00 | 0.00 | 31 | 1015.1 |
| 20260503230041 | 16 | 286 | 0.0 | 8.0 | 0.00 | 0.00 | 0.00 | 31 | 1015.1 |
| 20260503224541 | 16 | 286 | 0.0 | 6.4 | 0.00 | 0.00 | 0.00 | 30 | 1015.0 |
| 20260503223041 | 17 | 286 | 0.0 | 8.0 | 0.00 | 0.00 | 0.00 | 29 | 1015.3 |
| 20260503221544 | 17 | 263 | 0.0 | 4.8 | 0.00 | 0.00 | 0.00 | 28 | 1015.3 |
| 20260503220039 | 18 | 283 | 1.6 | 8.0 | 0.00 | 0.00 | 0.00 | 27 | 1015.4 |
| 20260503214539 | 18 | 287 | 1.6 | 6.4 | 0.00 | 0.00 | 0.00 | 27 | 1015.5 |
| 20260503213043 | 18 | 274 | 1.6 | 9.7 | 0.00 | 0.00 | 0.00 | 27 | 1015.8 |
| 20260503211536 | 17 | 261 | 0.0 | 6.4 | 0.00 | 0.00 | 0.00 | 28 | 1015.7 |
| 20260503210034 | 17 | 277 | 0.0 | 4.8 | 0.00 | 0.00 | 0.00 | 29 | 1016.0 |
| 20260503204533 | 17 | 274 | 1.6 | 12.9 | 0.00 | 0.00 | 0.00 | 29 | 1016.1 |
| 20260503203030 | 17 | 235 | 1.6 | 4.8 | 0.00 | 0.00 | 0.00 | 27 | 1016.2 |
| 20260503201527 | 17 | 272 | 0.0 | 9.7 | 0.00 | 0.00 | 0.00 | 29 | 1016.3 |
| 20260503200024 | 16 | 299 | 4.8 | 12.9 | 0.00 | 0.00 | 0.00 | 29 | 1016.5 |
| 20260503194522 | 16 | 355 | 1.6 | 8.0 | 0.00 | 0.00 | 0.00 | 33 | 1016.9 |
| 20260503193023 | 16 | 235 | 0.0 | 8.0 | 0.00 | 0.00 | 0.00 | 33 | 1017.2 |
| 20260503191519 | 16 | 334 | 0.0 | 6.4 | 0.00 | 0.00 | 0.00 | 31 | 1017.2 |
| 20260503190037 | 15 | 300 | 1.6 | 9.7 | 0.00 | 0.00 | 0.00 | 33 | 1017.3 |
| 20260503184517 | 16 | 301 | 1.6 | 6.4 | 0.00 | 0.00 | 0.00 | 33 | 1017.8 |
| 20260503183016 | 15 | 273 | 0.0 | 11.3 | 0.00 | 0.00 | 0.00 | 35 | 1018.0 |
| 20260503181510 | 14 | 275 | 0.0 | 6.4 | 0.00 | 0.00 | 0.00 | 38 | 1018.2 |
| 20260503180012 | 13 | 34 | 0.0 | 4.8 | 0.00 | 0.00 | 0.00 | 35 | 1018.3 |
| 20260503174507 | 14 | 284 | 0.0 | 12.9 | 0.00 | 0.00 | 0.00 | 38 | 1018.5 |
| 20260503173004 | 13 | 22 | 0.0 | 6.4 | 0.00 | 0.00 | 0.00 | 36 | 1018.5 |
| 20260503171501 | 12 | 355 | 0.0 | 8.0 | 0.00 | 0.00 | 0.00 | 37 | 1018.9 |
| 20260503100109 | 3 | 309 | 0.0 | 1.6 | 0.00 | 0.00 | 0.00 | 68 | 1017.6 |